Madison, WI

1:55 PM CST on November 13, 2019 (GMT -0600)
Dane County Regional-Truax

Weather History for KMSN - June, 2019

Change the Weather History Date:

Friday, June 7, 2019

  Actual Average Record
Temperature  
Mean Temperature 69 °F 64 °F  
Max Temperature 83 °F 76 °F 96 °F (2011)
Min Temperature 55 °F 53 °F 38 °F (1977)
Degree Days  
Heating Degree Days 0 3  
Month to date heating degree days 14 27  
Since 1 June heating degree days 14 27  
Since 1 July heating degree days 7473 7300  
Cooling Degree Days 4 2  
Month to date cooling degree days 17 14  
Year to date cooling degree days 37 44  
Since 1 June cooling degree days 17 14  
Growing Degree Days 18 (Base 50)    
Moisture  
Dew Point 54 °F    
Average Humidity 64    
Maximum Humidity 93    
Minimum Humidity 34    
Precipitation  
Precipitation 0.00 in 0.15 in 2.23 in (2008)
Month to date precipitation 1.03 1.04  
Year to date precipitation 16.84 12.87  
Snow  
Snow 0.00 in 0.00 in 0.00 in (2018)
Month to date snowfall 0.0 0.0  
Since 1 June snowfall 0.0 0.0  
Since 1 July snowfall 57.2 50.9  
Snow Depth 0.00 in    
Sea Level Pressure  
Sea Level Pressure 29.97 in    
Wind  
Wind Speed 7 mph (East)    
Max Wind Speed 16 mph    
Max Gust Speed 21 mph    
Visibility 10 miles    
Events      
T = Trace of Precipitation, MM = Missing Value Source: NWS Daily Summary

Daily Weather History Graph

Daily Weather History Graph

Search for Another Location

Airport or City:

Astronomy

Jun. 07, 2019 Rise Set
Actual Time 5:18 AM CDT 8:34 PM CDT
Civil Twilight 4:43 AM CDT 9:09 PM CDT
Nautical Twilight 3:57 AM CDT 9:55 PM CDT
Astronomical Twilight 3:02 AM CDT 10:50 PM CDT
Moon 9:37 AM CDT (6/7) No Moon Set
Length of Visible Light 16h 26m
Length of Day
15h 16m
Waxing Crescent, 22% of the Moon is Illuminated
Jun 7
Waxing Crescent
Jun 10
First Quarter
Jun 17
Full
Jun 25
Last Quarter
Jul 2
New

Hourly Weather History & Observations

Time (CDT) Temp. Heat Index Dew Point Humidity Pressure Visibility Wind Dir Wind Speed Gust Speed Precip Events Conditions
12:53 AM 61.0 °F - 55.0 °F 81% 29.94 in 10.0 mi Calm Calm - N/A   Clear
1:53 AM 62.1 °F - 55.0 °F 78% 29.93 in 10.0 mi East 3.5 mph - N/A   Clear
2:53 AM 57.9 °F - 55.0 °F 90% 29.93 in 10.0 mi Calm Calm - N/A   Clear
3:53 AM 57.9 °F - 55.0 °F 90% 29.94 in 10.0 mi NNE 3.5 mph - N/A   Clear
4:53 AM 55.9 °F - 54.0 °F 93% 29.94 in 6.0 mi North 3.5 mph - N/A   Clear
5:53 AM 55.9 °F - 54.0 °F 93% 29.96 in 5.0 mi NNW 3.5 mph - N/A   Clear
6:53 AM 61.0 °F - 55.9 °F 83% 29.98 in 8.0 mi Calm Calm - N/A   Clear
7:53 AM 64.9 °F - 54.0 °F 68% 29.99 in 10.0 mi SE 6.9 mph - N/A   Clear
8:53 AM 70.0 °F - 55.9 °F 61% 29.99 in 10.0 mi SE 5.8 mph - N/A   Clear
9:53 AM 72.0 °F - 57.0 °F 59% 30.00 in 10.0 mi Variable 3.5 mph - N/A   Clear
10:53 AM 73.9 °F - 57.9 °F 57% 29.99 in 10.0 mi East 8.1 mph - N/A   Clear
11:53 AM 77.0 °F - 57.9 °F 52% 29.99 in 10.0 mi ESE 11.5 mph - N/A   Clear
12:53 PM 79.0 °F - 57.9 °F 48% 29.98 in 10.0 mi East 11.5 mph - N/A   Clear
1:53 PM 81.0 °F 80.8 °F 55.9 °F 42% 29.97 in 10.0 mi SE 6.9 mph - N/A   Clear
2:53 PM 82.0 °F 81.3 °F 54.0 °F 38% 29.96 in 10.0 mi East 12.7 mph 18.4 mph N/A   Clear
3:53 PM 82.9 °F 81.8 °F 53.1 °F 36% 29.96 in 10.0 mi SE 15.0 mph 19.6 mph N/A   Clear
4:53 PM 82.0 °F - 51.1 °F 34% 29.96 in 10.0 mi ESE 12.7 mph - N/A   Clear
5:53 PM 81.0 °F - 51.1 °F 35% 29.95 in 10.0 mi East 11.5 mph - N/A   Clear
6:53 PM 80.1 °F - 50.0 °F 35% 29.95 in 10.0 mi East 12.7 mph - N/A   Clear
7:53 PM 75.9 °F - 52.0 °F 43% 29.96 in 10.0 mi ESE 9.2 mph - N/A   Clear
8:53 PM 72.0 °F - 52.0 °F 49% 29.98 in 10.0 mi ESE 5.8 mph - N/A   Clear
9:53 PM 66.9 °F - 54.0 °F 63% 29.99 in 10.0 mi Calm Calm - N/A   Clear
10:53 PM 64.9 °F - 54.0 °F 68% 30.00 in 10.0 mi ENE 3.5 mph - N/A   Clear
11:53 PM 66.0 °F - 54.0 °F 65% 30.00 in 10.0 mi ENE 4.6 mph - N/A   Clear